Погода в Письменном

Украина / Днепропетровская область     48°12′06″N   35°48′20″E
темп.,
°C
ветер,
м/с
пор.,
м/с
влажн.,
%
обл.,
%
осадки,
мм/ч
давл.,
гПа
погр.,
м
24 мая, вт
вт2400:00+11ссв356589 0.0 1009123
03:00+9ссв237176 0.0 101048
06:00+8с35765 0.0 1011122
09:00+14с354745 0.0 1012975
12:00+16ссз3441100 0.0 10122272
15:00+17сз4641100 0.0 10122457
18:00+16сз455290 0.0 10131125
21:00+12з226945 0.1 101430
25 мая, ср
ср2500:00+11зсз237116 0.0 101527
03:00+9зсз33733 0.0 101629
06:00+9зсз35766 0.0 1017105
09:00+15сз34593 0.0 1018667
12:00+18ссз44421 0.0 10181833
15:00+20сз453987 0.0 10182447
18:00+16с345997 0.0 101882
21:00+15зюз005294 0.0 101911
26 мая, чт
чт2600:00+14ююз225119 0.0 101912
03:00+11ююз446128 0.0 101951
06:00+12ююз477034 0.0 1018122
09:00+18юз685688 0.0 1018773
12:00+19юз81149100 0.0 10171715
15:00+13юз71386100 4.0 10171017
18:00+13юз7158291 0.9 1016723
21:00+12юз410900 0.9 1016213
27 мая, пт
пт2700:00+12зюз47945 0.0 1016114
03:00+12зюз49945 0.0 1016150
06:00+12з41087100 0.0 1016207
09:00+18з6106149 0.0 1016736
12:00+21з8104954 0.0 10152166
15:00+21зсз6954100 0.0 10151212
18:00+21з495669 0.0 10141597
21:00+18юз3563100 0.0 101490
28 мая, сб
сб2800:00+17юз4969100 0.0 1013213
03:00+17юз61465100 0.0 1012455
06:00+16юз716737 0.0 1011567
09:00+17юз7156883 0.0 1011660
12:00+22юз8125998 0.1 10111632
15:00+19сз577846 1.5 1011707
18:00+20сз4566100 0.4 10121029
21:00+15с336783 0.4 101457